LKPR Weather Reports


time (UTC)temp
C
wind
direction
speed
KPH
gust
KPH
rain 1hr
cm
rain 24hr
cm
rain mn
cm
humidity
%
barometer
mb
20260507073202 12 250 25.7 0.0 0.00 0.00 0.00 82 1010.0
20260507071804 12 240 22.5 0.0 0.00 0.00 0.00 76
20260507070203 12 230 22.5 0.0 0.00 0.00 0.00 82 1010.0
20260507064504 12 230 24.1 0.0 0.00 0.00 0.00 82 1010.0
20260507063203 12 220 22.5 0.0 0.00 0.00 0.00 82 1009.0
20260507061801 12 230 14.5 0.0 0.00 0.00 0.00 87
20260507061303 12 230 16.1 0.0 0.00 0.00 0.00 87 1009.0
20260507060203 12 230 16.1 0.0 0.00 0.00 0.00 93 1009.0
20260507053203 12 230 16.1 0.0 0.00 0.00 0.00 87 1009.0
20260507051801 11 230 22.5 0.0 0.00 0.00 0.00 87
20260507050203 11 230 14.5 0.0 0.00 0.00 0.00 93 1009.0
20260507043203 11 280 8.0 0.0 0.00 0.00 0.00 93 1008.0
20260507042024 10 230 11.3 0.0 0.00 0.00 0.00 93
20260507040203 10 240 16.1 0.0 0.00 0.00 0.00 93 1008.0
20260507033203 10 260 14.5 0.0 0.00 0.00 0.00 93 1008.0
20260507031802 10 250 11.3 0.0 0.00 0.00 0.00 93
20260507030202 10 260 4.8 0.0 0.00 0.00 0.00 93 1008.0
20260507023202 10 240 11.3 0.0 0.00 0.00 0.00 100 1008.0
20260507021800 10 170 8.0 0.0 0.00 0.00 0.00 93
20260507020202 10 170 4.8 0.0 0.00 0.00 0.00 100 1008.0
20260507013202 11 240 14.5 0.0 0.00 0.00 0.00 93 1007.0
20260507011902 12 200 11.3 0.0 0.00 0.00 0.00 93
20260507010202 12 210 9.7 0.0 0.00 0.00 0.00 93 1007.0
20260507003202 12 230 12.9 0.0 0.00 0.00 0.00 93 1007.0
20260507001802 12 240 11.3 0.0 0.00 0.00 0.00 99
20260507000205 12 250 14.5 0.0 0.00 0.00 0.00 100 1007.0
20260506233203 12 200 8.0 0.0 0.00 0.00 0.00 100 1007.0
20260506231803 12 180 8.0 0.0 0.00 0.00 0.00 99
20260506230202 12 190 8.0 0.0 0.00 0.00 0.00 93 1006.0
20260506223202 12 230 9.7 0.0 0.00 0.00 0.00 93 1007.0
20260506222002 12 230 11.3 0.0 0.00 0.00 0.00 93
20260506220203 12 220 8.0 0.0 0.00 0.00 0.00 100 1007.0
20260506213203 12 150 11.3 0.0 0.00 0.00 0.00 93 1006.0
20260506211802 12 150 14.5 0.0 0.00 0.00 0.00 93
20260506210203 12 150 19.3 0.0 0.00 0.00 0.00 100 1006.0
20260506204103 12 200 12.9 0.0 0.00 0.00 0.00 100 1006.0
20260506203201 12 200 12.9 0.0 0.00 0.00 0.00 87 1006.0
20260506202403 12 210 20.9 0.0 0.00 0.00 0.00 93 1006.0
20260506201818 12 120 8.0 0.0 0.00 0.00 0.00 87
20260506201503 12 220 20.9 0.0 0.00 0.00 0.00 87 1006.0
20260506200203 12 120 9.7 0.0 0.00 0.00 0.00 87 1005.0
20260506195004 12 80 9.7 0.0 0.00 0.00 0.00 93 1005.0
20260506193203 13 90 9.7 0.0 0.00 0.00 0.00 87 1005.0
20260506191850 13 360 8.0 0.0 0.00 0.00 0.00 87
20260506190202 12 350 11.3 0.0 0.00 0.00 0.00 93 1005.0
20260506184603 12 350 9.7 0.0 0.00 0.00 0.00 93 1005.0
20260506184103 12 320 9.7 0.0 0.00 0.00 0.00 93 1005.0
20260506183803 13 290 8.0 0.0 0.00 0.00 0.00 87 1005.0
20260506183203 13 0 3.2 0.0 0.00 0.00 0.00 87 1005.0
20260506182902 15 0 4.8 0.0 0.00 0.00 0.00 82 1005.0
20260506182703 15 0 8.0 0.0 0.00 0.00 0.00 82 1005.0
20260506181835 15 90 8.0 0.0 0.00 0.00 0.00 77
20260506181808 15 360 8.0 0.0 0.00 0.00 0.00 77 1004.0
20260506180903 15 0 4.8 0.0 0.00 0.00 0.00 82 1004.0
20260506180203 15 80 8.0 0.0 0.00 0.00 0.00 77 1004.0
20260506174503 15 70 9.7 0.0 0.00 0.00 0.00 82 1004.0
20260506173203 16 80 9.7 0.0 0.00 0.00 0.00 72 1004.0
20260506171801 15 250 3.2 0.0 0.00 0.00 0.00 82
20260506170203 16 0 3.2 0.0 0.00 0.00 0.00 82 1004.0
20260506163202 16 300 9.7 0.0 0.00 0.00 0.00 72 1004.0
20260506162002 16 310 8.0 0.0 0.00 0.00 0.00 72
20260506160203 16 300 12.9 0.0 0.00 0.00 0.00 72 1004.0
20260506153203 16 250 16.1 0.0 0.00 0.00 0.00 67 1005.0
20260506151818 16 230 3.2 0.0 0.00 0.00 0.00 67
20260506150202 16 280 12.9 0.0 0.00 0.00 0.00 72 1005.0
20260506145305 16 280 14.5 0.0 0.00 0.00 0.00 72 1005.0
20260506144003 16 190 14.5 0.0 0.00 0.00 0.00 72 1005.0
20260506143203 17 190 12.9 32.2 0.00 0.00 0.00 67 1005.0
20260506141818 18 270 3.2 0.0 0.00 0.00 0.00 55
20260506140203 18 0 3.2 0.0 0.00 0.00 0.00 59 1005.0
20260506134802 18 0 3.2 0.0 0.00 0.00 0.00 52 1005.0
20260506133203 20 160 4.8 0.0 0.00 0.00 0.00 49 1005.0
20260506131818 20 210 3.2 0.0 0.00 0.00 0.00 49
20260506130203 20 200 8.0 0.0 0.00 0.00 0.00 52 1006.0
20260506123202 20 220 11.3 0.0 0.00 0.00 0.00 56 1006.0
20260506121818 18 260 11.3 0.0 0.00 0.00 0.00 59
20260506120203 20 0 8.0 0.0 0.00 0.00 0.00 56 1006.0
20260506113202 17 230 12.9 0.0 0.00 0.00 0.00 59 1006.0
20260506111804 17 210 11.3 0.0 0.00 0.00 0.00 63
20260506110203 17 200 16.1 0.0 0.00 0.00 0.00 63 1007.0
20260506103202 17 220 16.1 0.0 0.00 0.00 0.00 67 1007.0
20260506102017 17 230 19.3 0.0 0.00 0.00 0.00 63
20260506100203 17 230 19.3 0.0 0.00 0.00 0.00 63 1007.0
20260506093203 17 230 19.3 0.0 0.00 0.00 0.00 67 1007.0
20260506091804 16 220 22.5 0.0 0.00 0.00 0.00 63
20260506090203 16 230 19.3 0.0 0.00 0.00 0.00 67 1007.0
20260506083202 15 240 22.5 0.0 0.00 0.00 0.00 72 1007.0
20260506081802 15 230 22.5 0.0 0.00 0.00 0.00 77
20260506080203 15 230 19.3 0.0 0.00 0.00 0.00 77 1007.0